When you browse on this site, cookies collect data to enhance your experience and personalize the content and advertising you see.
Visit our Privacy Policy to learn more. By continuing to use the site, you agree to this use of cookies and data.
  • In Hungary
  • List of Countries
  • For 7 days
  • Water Temperature
  • Satellite Maps
  • Weather Map
  • News
  • Weather Widgets
  • user-avatar
    Login

    Hourly Weather Hakodate

    Today, 21 November, Wednesday

    Time Temperature Precipitation Wind Pressure Humidity
    00:00 +3°C° 0 mm 3 mps 762 mmHg 71%
    01:00 +4°C° 0.2 mm 3 mps 761 mmHg 71%
    02:00 +4°C° 0.2 mm 3 mps 761 mmHg 71%
    03:00 +4°C° 0 mm 3 mps 760 mmHg 70%
    04:00 +4°C° 3.6 mm 4 mps 759 mmHg 74%
    05:00 +5°C° 3.6 mm 5 mps 759 mmHg 79%
    06:00 +5°C° 3.6 mm 5 mps 759 mmHg 83%
    07:00 +5°C° 0.5 mm 5 mps 759 mmHg 80%
    08:00 +6°C° 0.5 mm 5 mps 759 mmHg 78%
    09:00 +6°C° 0.5 mm 5 mps 759 mmHg 75%
    10:00 +5°C° 0.1 mm 7 mps 759 mmHg 72%
    11:00 +6°C° 0.1 mm 8 mps 760 mmHg 69%
    12:00 +6°C° 0.1 mm 9 mps 760 mmHg 65%
    13:00 +5°C° 0.1 mm 9 mps 760 mmHg 66%
    14:00 +5°C° 0.1 mm 8 mps 761 mmHg 67%
    15:00 +4°C° 0.1 mm 8 mps 761 mmHg 67%
    16:00 +4°C° 0.1 mm 7 mps 762 mmHg 69%
    17:00 +3°C° 0.1 mm 6 mps 762 mmHg 71%
    18:00 +3°C° 0.1 mm 5 mps 763 mmHg 73%
    19:00 +2°C° 0 mm 5 mps 763 mmHg 73%
    20:00 +2°C° 0 mm 5 mps 762 mmHg 73%
    21:00 +3°C° 0 mm 4 mps 762 mmHg 73%
    22:00 +3°C° 0 mm 4 mps 762 mmHg 74%
    23:00 +3°C° 0 mm 3 mps 762 mmHg 74%

    Tomorrow, 22 November, Thursday

    Time Temperature Precipitation Wind Pressure Humidity
    00:00 +2°C° 0 mm 3 mps 762 mmHg 75%
    01:00 +3°C° 0 mm 2 mps 762 mmHg 75%
    02:00 +3°C° 0 mm 2 mps 761 mmHg 75%
    03:00 +4°C° 0 mm 1 mps 761 mmHg 75%
    04:00 +5°C° 0.1 mm 1 mps 760 mmHg 76%
    05:00 +4°C° 0.1 mm 2 mps 760 mmHg 77%
    06:00 +4°C° 0.1 mm 2 mps 759 mmHg 79%
    07:00 +3°C° 0.6 mm 3 mps 759 mmHg 80%
    08:00 +3°C° 0.6 mm 4 mps 758 mmHg 82%
    09:00 +3°C° 0.6 mm 4 mps 758 mmHg 84%
    10:00 +3°C° 0.5 mm 5 mps 757 mmHg 85%
    11:00 +3°C° 0.5 mm 5 mps 756 mmHg 86%
    12:00 +3°C° 0.5 mm 5 mps 756 mmHg 87%
    13:00 +3°C° 0.2 mm 5 mps 755 mmHg 86%
    14:00 +3°C° 0.2 mm 5 mps 755 mmHg 86%
    15:00 +3°C° 0.2 mm 5 mps 754 mmHg 86%
    16:00 +3°C° 0.1 mm 5 mps 755 mmHg 84%
    17:00 +2°C° 0.1 mm 5 mps 755 mmHg 81%
    18:00 +2°C° 0.1 mm 5 mps 755 mmHg 79%
    19:00 +1°C° 0 mm 5 mps 755 mmHg 77%
    20:00 +1°C° 0 mm 5 mps 755 mmHg 76%
    21:00 +1°C° 0 mm 5 mps 755 mmHg 75%
    22:00 +1°C° 0.4 mm 6 mps 755 mmHg 75%
    23:00 0°C° 0.4 mm 8 mps 755 mmHg 75%

    Day after tomorrow, 23 November, Friday

    Time Temperature Precipitation Wind Pressure Humidity
    00:00 +1°C° 0.4 mm 10 mps 755 mmHg 74%
    01:00 -1°C° 0.4 mm 11 mps 755 mmHg 73%
    02:00 -1°C° 0.4 mm 11 mps 755 mmHg 71%
    03:00 -2°C° 0.4 mm 11 mps 755 mmHg 70%
    04:00 -2°C° 0.4 mm 11 mps 756 mmHg 70%
    05:00 -3°C° 0.4 mm 11 mps 756 mmHg 70%
    06:00 -3°C° 0.4 mm 11 mps 757 mmHg 71%
    07:00 -3°C° 0.2 mm 11 mps 757 mmHg 70%
    08:00 -3°C° 0.2 mm 11 mps 758 mmHg 70%
    09:00 -4°C° 0.2 mm 11 mps 759 mmHg 70%
    10:00 -3°C° 0.1 mm 11 mps 759 mmHg 70%
    11:00 -3°C° 0.1 mm 10 mps 759 mmHg 70%
    12:00 -3°C° 0.1 mm 10 mps 759 mmHg 70%
    13:00 -3°C° 0.2 mm 10 mps 760 mmHg 70%
    14:00 -3°C° 0.2 mm 10 mps 760 mmHg 71%
    15:00 -3°C° 0.2 mm 10 mps 760 mmHg 71%
    16:00 -3°C° 0.2 mm 10 mps 761 mmHg 72%
    17:00 -3°C° 0.2 mm 10 mps 761 mmHg 73%
    18:00 -4°C° 0.2 mm 9 mps 762 mmHg 75%
    19:00 -4°C° 0.2 mm 9 mps 762 mmHg 75%
    20:00 -4°C° 0.2 mm 9 mps 762 mmHg 74%
    21:00 -4°C° 0.2 mm 9 mps 763 mmHg 74%
    22:00 -4°C° 0.2 mm 9 mps 763 mmHg 75%
    23:00 -2°C° 0.2 mm 8 mps 764 mmHg 75%

    24 November, Saturday

    Time Temperature Precipitation Wind Pressure Humidity
    00:00 -2°C° 0.2 mm 8 mps 764 mmHg 75%
    01:00 -2°C° 0.2 mm 8 mps 764 mmHg 75%
    02:00 -2°C° 0.2 mm 8 mps 765 mmHg 75%
    03:00 -2°C° 0.2 mm 7 mps 765 mmHg 76%
    04:00 -2°C° 0.1 mm 7 mps 765 mmHg 75%
    05:00 -2°C° 0.1 mm 7 mps 765 mmHg 75%
    06:00 -2°C° 0.1 mm 7 mps 765 mmHg 75%
    07:00 -2°C° 0.1 mm 7 mps 765 mmHg 74%
    08:00 -1°C° 0.1 mm 6 mps 766 mmHg 73%
    09:00 -1°C° 0.1 mm 6 mps 766 mmHg 72%
    10:00 -1°C° 0.1 mm 6 mps 766 mmHg 72%
    11:00 +1°C° 0.1 mm 5 mps 765 mmHg 72%
    12:00 +1°C° 0.1 mm 5 mps 765 mmHg 71%
    13:00 +1°C° 0.1 mm 5 mps 765 mmHg 72%
    14:00 +1°C° 0.1 mm 5 mps 765 mmHg 73%
    15:00 +1°C° 0.1 mm 4 mps 765 mmHg 74%
    16:00 +1°C° 0.1 mm 4 mps 765 mmHg 75%
    17:00 0°C° 0.1 mm 4 mps 765 mmHg 76%
    18:00 0°C° 0.1 mm 4 mps 765 mmHg 77%
    19:00 +1°C° 0.1 mm 3 mps 766 mmHg 78%
    20:00 +1°C° 0.1 mm 3 mps 766 mmHg 79%
    21:00 +2°C° 0.1 mm 2 mps 766 mmHg 80%
    22:00 +2°C° 0.1 mm 2 mps 766 mmHg 81%
    23:00 +2°C° 0.1 mm 2 mps 765 mmHg 83%

    25 November, Sunday

    Time Temperature Precipitation Wind Pressure Humidity
    00:00 +2°C° 0.1 mm 2 mps 765 mmHg 84%
    01:00 +2°C° 0.1 mm 2 mps 765 mmHg 84%
    02:00 +1°C° 0.1 mm 3 mps 765 mmHg 85%
    03:00 0°C° 0.1 mm 4 mps 764 mmHg 85%
    04:00 +1°C° 0.1 mm 4 mps 764 mmHg 84%
    05:00 +1°C° 0.1 mm 5 mps 764 mmHg 83%
    06:00 +1°C° 0.1 mm 5 mps 764 mmHg 82%
    07:00 +2°C° 0.2 mm 6 mps 764 mmHg 82%
    08:00 +2°C° 0.2 mm 7 mps 764 mmHg 81%
    09:00 +3°C° 0.2 mm 7 mps 763 mmHg 80%
    10:00 +4°C° 0.5 mm 8 mps 763 mmHg 79%
    11:00 +4°C° 0.5 mm 8 mps 762 mmHg 78%
    12:00 +5°C° 0.5 mm 8 mps 762 mmHg 78%
    13:00 +5°C° 2.3 mm 8 mps 761 mmHg 80%
    14:00 +5°C° 2.3 mm 7 mps 761 mmHg 83%
    15:00 +5°C° 2.3 mm 7 mps 760 mmHg 85%
    16:00 +5°C° 1.5 mm 6 mps 760 mmHg 87%
    17:00 +5°C° 1.5 mm 5 mps 761 mmHg 88%
    18:00 +5°C° 1.5 mm 4 mps 761 mmHg 90%
    19:00 +5°C° 0.1 mm 4 mps 761 mmHg 87%
    20:00 +5°C° 0.1 mm 4 mps 761 mmHg 83%
    21:00 +4°C° 0.1 mm 4 mps 762 mmHg 80%
    22:00 +4°C° 0 mm 4 mps 762 mmHg 80%
    23:00 +4°C° 0 mm 4 mps 762 mmHg 80%

    26 November, Monday

    Time Temperature Precipitation Wind Pressure Humidity
    00:00 +4°C° 0 mm 4 mps 762 mmHg 79%
    01:00 +4°C° 0 mm 4 mps 763 mmHg 79%
    02:00 +4°C° 0 mm 3 mps 763 mmHg 79%
    03:00 +4°C° 0 mm 3 mps 763 mmHg 78%
    04:00 +4°C° 0 mm 3 mps 764 mmHg 78%
    05:00 +4°C° 0 mm 3 mps 764 mmHg 77%
    06:00 +4°C° 0 mm 3 mps 764 mmHg 77%
    07:00 +4°C° 0 mm 3 mps 765 mmHg 76%
    08:00 +5°C° 0 mm 4 mps 765 mmHg 74%
    09:00 +6°C° 0 mm 4 mps 766 mmHg 73%
    10:00 +6°C° 0 mm 4 mps 766 mmHg 70%
    11:00 +6°C° 0 mm 4 mps 765 mmHg 68%
    12:00 +7°C° 0 mm 5 mps 765 mmHg 66%
    13:00 +7°C° 0 mm 5 mps 765 mmHg 67%
    14:00 +7°C° 0 mm 5 mps 766 mmHg 67%
    15:00 +6°C° 0 mm 5 mps 766 mmHg 68%
    16:00 +6°C° 0 mm 5 mps 766 mmHg 69%
    17:00 +5°C° 0 mm 4 mps 766 mmHg 71%
    18:00 +4°C° 0 mm 4 mps 767 mmHg 72%
    19:00 +4°C° 0 mm 4 mps 767 mmHg 73%
    20:00 +4°C° 0 mm 4 mps 767 mmHg 75%
    21:00 +4°C° 0 mm 4 mps 766 mmHg 76%
    22:00 +3°C° 0 mm 5 mps 766 mmHg 77%
    23:00 +3°C° 0 mm 5 mps 766 mmHg 77%
    Show more